Baltimore, MD

12:35 AM EST on November 18, 2017 (GMT -0500)
Baltimore-Washington International

Weather History for KBWI - February, 2014

Change the Weather History Date:

Sunday, February 23, 2014

  Actual Average Record
Temperature  
Mean Temperature 52 °F 37 °F  
Max Temperature 60 °F 47 °F 78 °F (1874)
Min Temperature 43 °F 28 °F 5 °F (1963)
Degree Days  
Heating Degree Days 13 28  
Month to date heating degree days 704 685  
Since 1 July heating degree days 3569 3461  
Cooling Degree Days 0 0  
Month to date cooling degree days 0 0  
Year to date cooling degree days 0 0  
Moisture  
Dew Point 28 °F    
Average Humidity 49    
Maximum Humidity 70    
Minimum Humidity 28    
Precipitation  
Precipitation T in 0.10 in 1.56 in (1998)
Month to date precipitation 4.47 2.37  
Year to date precipitation 7.18 5.42  
Snow  
Snow 0.00 in 0.30 in 6.10 in (1987)
Month to date snowfall 13.0 7.0  
Since 1 July snowfall 25.7 17.2  
Snow Depth 0.00 in    
Sea Level Pressure  
Sea Level Pressure 29.95 in    
Wind  
Wind Speed 7 mph (WNW)    
Max Wind Speed 15 mph    
Max Gust Speed 21 mph    
Visibility 10 miles    
Events Rain    
T = Trace of Precipitation, MM = Missing Value Source: NWS Daily Summary

Daily Weather History Graph

Daily Weather History Graph

Search for Another Location

Airport or City:

Trip Planner

Search our weather history database for the weather conditions in past years. The results will help you decide how hot, cold, wet, or windy it might be!

Date:

Astronomy

Feb. 23, 2014 Rise Set
Actual Time 6:47 AM EST 5:52 PM EST
Civil Twilight 6:20 AM EST 6:19 PM EST
Nautical Twilight 5:49 AM EST 6:50 PM EST
Astronomical Twilight 5:18 AM EST 7:21 PM EST
Moon 1:42 AM EST (2/23) 11:54 AM EST (2/23)
Length of Visible Light 11h 58m
Length of Day
11h 04m
Last Quarter, 39% of the Moon is Illuminated
Feb 23
Last Quarter
Mar 1
New
Mar 8
First Quarter
Mar 16
Full
Mar 23
Last Quarter

Hourly Weather History & Observations

Time (EST) Temp. Windchill Dew Point Humidity Pressure Visibility Wind Dir Wind Speed Gust Speed Precip Events Conditions
12:54 AM 48.0 °F - 28.0 °F 46% 30.01 in 10.0 mi SSW 8.1 mph - N/A   Scattered Clouds
1:54 AM 48.0 °F - 27.0 °F 44% 30.01 in 10.0 mi SW 5.8 mph - N/A   Mostly Cloudy
2:54 AM 48.9 °F - 27.0 °F 43% 29.99 in 10.0 mi SW 5.8 mph - N/A   Overcast
3:54 AM 50.0 °F - 26.1 °F 39% 29.98 in 10.0 mi SW 10.4 mph - N/A   Overcast
4:54 AM 50.0 °F - 25.0 °F 38% 29.98 in 10.0 mi SW 10.4 mph - N/A   Mostly Cloudy
5:54 AM 46.9 °F - 27.0 °F 46% 30.01 in 10.0 mi WSW 8.1 mph - N/A   Mostly Cloudy
6:54 AM 46.9 °F - 26.1 °F 44% 30.01 in 10.0 mi WSW 3.5 mph - N/A   Mostly Cloudy
7:54 AM 46.9 °F - 27.0 °F 46% 30.01 in 10.0 mi SSW 4.6 mph - N/A   Mostly Cloudy
8:54 AM 48.9 °F - 28.0 °F 44% 30.01 in 10.0 mi WSW 4.6 mph - N/A   Overcast
9:54 AM 48.9 °F - 28.9 °F 46% 30.01 in 10.0 mi West 6.9 mph - N/A   Overcast
10:54 AM 51.1 °F - 27.0 °F 39% 29.96 in 10.0 mi Variable 4.6 mph - N/A   Mostly Cloudy
11:54 AM 52.0 °F - 28.0 °F 40% 29.96 in 10.0 mi WNW 5.8 mph - N/A   Scattered Clouds
12:54 PM 57.0 °F - 28.0 °F 33% 29.92 in 10.0 mi NNW 3.5 mph - N/A   Scattered Clouds
1:54 PM 57.9 °F - 28.9 °F 33% 29.91 in 10.0 mi WNW 8.1 mph - N/A   Partly Cloudy
2:54 PM 59.0 °F - 28.0 °F 31% 29.91 in 10.0 mi NW 9.2 mph - N/A   Partly Cloudy
3:54 PM 59.0 °F - 27.0 °F 29% 29.89 in 10.0 mi North 5.8 mph - N/A   Scattered Clouds
4:54 PM 57.9 °F - 26.1 °F 30% 29.88 in 10.0 mi NNW 3.5 mph - N/A   Scattered Clouds
5:54 PM 53.1 °F - 26.1 °F 35% 29.88 in 10.0 mi North 6.9 mph - N/A   Scattered Clouds
6:54 PM 51.1 °F - 26.1 °F 38% 29.90 in 10.0 mi North 5.8 mph - N/A   Scattered Clouds
7:54 PM 48.9 °F - 27.0 °F 43% 29.92 in 10.0 mi NNW 4.6 mph - N/A   Scattered Clouds
8:54 PM 48.0 °F - 30.9 °F 52% 29.93 in 10.0 mi NW 11.5 mph - N/A   Mostly Cloudy
9:54 PM 45.0 °F 41.2 °F 35.1 °F 68% 29.93 in 10.0 mi NW 6.9 mph - N/A   Mostly Cloudy
10:54 PM 44.1 °F 39.5 °F 35.1 °F 71% 29.92 in 10.0 mi North 8.1 mph - N/A   Mostly Cloudy
11:34 PM 42.8 °F 38.6 °F 35.6 °F 76% 29.93 in 10.0 mi NW 6.9 mph - N/A   Overcast
11:54 PM 43.0 °F 37.7 °F 35.1 °F 74% 29.93 in 10.0 mi NW 9.2 mph - 0.00 in Rain Light Rain